Location: Saint-Hippolyte
(43.6394°N, 4.7559°E)
Time: 14:27:56
(UTC+00:00)

Cosmos 1346 Rocket - Pass Details

Date: 24 October 2020
Orbit: 535 x 543 km, 81.2° (Epoch: 23 November)

Event Time Altitude Azimuth Distance (km) Brightness Sun altitude
Rises 18:07:56 0° 359° (N) 2,712 6.4 -16.0°
Reaches altitude 10° 18:10:19 10° 10° (N) 1,816 5.3 -16.5°
Enters shadow 18:12:57 27° 48° (NE) 1,067 3.9 -16.9°
